Delta Pride — DSNG6 — position and weather

sailwx.info

Track history (hours):
 
Tides and Currents Weather Stations Pressure Air Temp Water Temp Dewpoint Dewpoint Depression Visibility Wind Speed Wind Dir Waves Ship Positions

Delta Pride

Last reported at 2014-Dec-29 02:26 UTC. Time now 2015-Jan-29 04:21 UTC.
Position N 49°08' W 127°06'.
Warning: this ship's position is 31 days out of date.

Length 186 m; draft 10.8 m.

Type: Cargo ship. MMSI: 441339000.

Date/timePositionNaut miles runAvg speedWind from/ knotsBaromVisibWave heightAir tempDewpointWater temp
2014-Dec-29 02:26N 49°08' W 127°06'8 9.3
2014-Dec-29 01:33N 49°05' W 126°55'10 9.9
2014-Dec-29 00:33N 49°00' W 126°41'1210.1
2014-Dec-28 23:23N 48°55' W 126°25'810.0
2014-Dec-28 22:33N 48°51' W 126°14'10 9.9
2014-Dec-28 21:33N 48°46' W 126°01'1010.5
2014-Dec-28 20:33N 48°42' W 125°46'1110.5
2014-Dec-28 19:33N 48°38' W 125°32'1110.5
2014-Dec-28 18:33N 48°34' W 125°17'1110.6
2014-Dec-28 17:33N 48°31' W 125°02'10 9.8
2014-Dec-28 16:33N 48°31' W 124°47'10 9.5
2014-Dec-28 15:33N 48°28' W 124°33'10 9.9
2014-Dec-28 14:33N 48°24' W 124°20'1010.4
2014-Dec-28 13:33N 48°20' W 124°05'1110.8
2014-Dec-28 12:33N 48°17' W 123°50'1211.9
2014-Dec-28 11:33N 48°16' W 123°32'1110.7
2014-Dec-28 10:33N 48°23' W 123°20'1010.5
2014-Dec-28 09:34N 48°33' W 123°13'1211.9
2014-Dec-28 08:33N 48°44' W 123°09'9 9.1
2014-Dec-28 07:34N 48°53' W 123°07'1313.2
2014-Dec-28 06:33N 49°03' W 123°21'1312.6
2014-Dec-28 05:33N 49°15' W 123°20'9 9.3
2014-Dec-28 04:33N 49°18' W 123°07'2 2.2
2014-Dec-28 03:31N 49°18' W 123°03'0 0.0
2014-Dec-28 02:31N 49°18' W 123°03'0 0.0
2014-Dec-28 01:31N 49°18' W 123°03'0 0.0
2014-Dec-28 00:31N 49°18' W 123°03'0 0.0
2014-Dec-27 23:31N 49°18' W 123°03'0 0.0
2014-Dec-27 22:31N 49°18' W 123°03'0 0.0
2014-Dec-27 21:31N 49°18' W 123°03'0 0.0
2014-Dec-27 20:31N 49°18' W 123°03'0 0.0
2014-Dec-27 19:31N 49°18' W 123°03'0 0.0
2014-Dec-27 18:31N 49°18' W 123°03'0 0.0
2014-Dec-27 17:31N 49°18' W 123°03'0 0.0
2014-Dec-27 16:31N 49°18' W 123°03'0 0.0
2014-Dec-27 15:31N 49°18' W 123°03'0 0.0
2014-Dec-27 14:31N 49°18' W 123°03'0 0.0
2014-Dec-27 13:31N 49°18' W 123°03'0 0.0
2014-Dec-27 12:31N 49°18' W 123°03'0 0.0
2014-Dec-27 11:31N 49°18' W 123°03'0 0.0
2014-Dec-27 10:31N 49°18' W 123°03'0 0.0
2014-Dec-27 09:31N 49°18' W 123°03'0 0.0
2014-Dec-27 08:31N 49°18' W 123°03'0 0.0
2014-Dec-27 07:31N 49°18' W 123°03'0 0.0
2014-Dec-27 06:31N 49°18' W 123°03'0 0.0
2014-Dec-27 05:31N 49°18' W 123°03'0 0.0
2014-Dec-27 04:31N 49°18' W 123°03'0 0.0
2014-Dec-27 03:31N 49°18' W 123°03'0 0.1
2014-Dec-27 02:34N 49°18' W 123°03'2 1.7
2014-Dec-27 01:33N 49°18' W 123°06'0 0.0
2014-Dec-27 00:33N 49°18' W 123°06'0 0.0
2014-Dec-26 23:33N 49°18' W 123°06'0 0.0
2014-Dec-26 22:33N 49°18' W 123°06'0 0.0
2014-Dec-26 21:33N 49°18' W 123°06'0 0.1
2014-Dec-26 20:30N 49°18' W 123°06'0 0.1
2014-Dec-26 19:33N 49°18' W 123°06'0 0.0
2014-Dec-26 18:33N 49°18' W 123°06'0 0.1
2014-Dec-26 17:33N 49°18' W 123°06'0 0.0
2014-Dec-26 16:32N 49°18' W 123°06'0 0.0
2014-Dec-26 15:32N 49°18' W 123°06'0 0.0
2014-Dec-26 14:32N 49°18' W 123°06'0 0.0
2014-Dec-26 13:32N 49°18' W 123°06'0 0.1
2014-Dec-26 12:32N 49°18' W 123°06'0 0.0
2014-Dec-26 11:32N 49°18' W 123°06'0 0.0
2014-Dec-26 10:32N 49°18' W 123°06'0 0.0
2014-Dec-26 09:32N 49°18' W 123°06'0 0.0
2014-Dec-26 08:32N 49°18' W 123°06'0 0.0
2014-Dec-26 07:32N 49°18' W 123°06'0 0.0
2014-Dec-26 06:32N 49°18' W 123°06'0 0.0
2014-Dec-26 05:32N 49°18' W 123°06'0 0.0
2014-Dec-26 04:32N 49°18' W 123°06'0 0.0
2014-Dec-26 03:32N 49°18' W 123°06'0 0.0
2014-Dec-26 02:32N 49°18' W 123°06'0 0.0
2014-Dec-26 01:32N 49°18' W 123°06'0 0.1
2014-Dec-26 00:32N 49°18' W 123°06'0 0.0
2014-Dec-25 23:32N 49°18' W 123°06'0 0.0
2014-Dec-25 22:32N 49°18' W 123°06'0 0.0
2014-Dec-25 21:32N 49°18' W 123°06'0 0.0
2014-Dec-25 20:32N 49°18' W 123°06'0 0.1
2014-Dec-25 19:32N 49°18' W 123°06'0 0.1
2014-Dec-25 18:32N 49°18' W 123°06'0 0.0
2014-Dec-25 17:32N 49°18' W 123°06'0 0.0
2014-Dec-25 16:33N 49°18' W 123°06'0 0.0
2014-Dec-25 15:32N 49°18' W 123°06'0 0.0
2014-Dec-25 14:32N 49°18' W 123°06'0 0.0
2014-Dec-25 13:32N 49°18' W 123°06'0 0.0
2014-Dec-25 12:32N 49°18' W 123°06'0 0.2
2014-Dec-25 11:32N 49°18' W 123°06'0 0.1
2014-Dec-25 10:32N 49°18' W 123°06'0 0.0
2014-Dec-25 09:32N 49°18' W 123°06'0 0.0
2014-Dec-25 08:32N 49°18' W 123°06'0 0.0
2014-Dec-25 07:33N 49°18' W 123°06'0 0.0
2014-Dec-25 06:33N 49°18' W 123°06'0 0.0
2014-Dec-25 05:34N 49°18' W 123°06'0 0.3
2014-Dec-25 04:33N 49°18' W 123°07'7 7.4
2014-Dec-25 03:33N 49°17' W 123°18'1211.7
2014-Dec-25 02:33N 49°05' W 123°20'1212.0
2014-Dec-25 01:33N 48°56' W 123°08'1111.1
2014-Dec-25 00:34N 48°46' W 123°03'1211.5
2014-Dec-24 23:33N 48°36' W 123°13'1312.7
2014-Dec-24 22:34N 48°24' W 123°13'1211.8
2014-Dec-24 21:33N 48°16' W 123°27'9 9.2
2014-Dec-24 20:33N 48°14' W 123°40'10 9.6
2014-Dec-24 19:33N 48°14' W 123°55'8 8.4
2014-Dec-24 18:33N 48°17' W 124°06'1110.6
2014-Dec-24 17:33N 48°21' W 124°21'1111.2
2014-Dec-24 16:33N 48°26' W 124°36'1212.4
2014-Dec-24 15:33N 48°28' W 124°54'1211.6
2014-Dec-24 14:33N 48°20' W 125°07'15813.1
2014-Dec-24 02:31N 45°46' W 125°56'5012.5
2014-Dec-23 22:33N 44°56' W 125°53'41611.2
2014-Dec-22 09:33N 38°14' W 123°32'1010.5
2014-Dec-22 08:33N 38°09' W 123°20'1110.5
2014-Dec-22 07:33N 38°01' W 123°12'1110.4
2014-Dec-22 06:32N 37°55' W 123°01'1110.9
2014-Dec-22 05:33N 37°50' W 122°48'8 7.9
2014-Dec-22 04:33N 37°45' W 122°41'9 9.1
2014-Dec-22 03:34N 37°49' W 122°30'7 6.5
2014-Dec-22 02:33N 37°54' W 122°27'1211.9
2014-Dec-22 01:33N 38°04' W 122°17'11 9.3
2014-Dec-22 00:21N 38°04' W 122°03'9 0.2
2014-Dec-20 11:19N 38°02' W 121°52'0 0.0
2014-Dec-19 06:10N 38°02' W 121°52'4 5.9
2014-Dec-19 05:32N 38°03' W 121°56'9 9.6
2014-Dec-19 04:33N 38°02' W 122°08'9 9.4
2014-Dec-19 03:33N 38°03' W 122°20'1010.4
2014-Dec-19 02:33N 37°54' W 122°26'  
Track history (hours):
 
Tides and Currents Weather Stations Pressure Air Temp Water Temp Dewpoint Dewpoint Depression Visibility Wind Speed Wind Dir Waves Ship Positions

Delta Pride

Last reported at 2014-Dec-29 02:26 UTC. Time now 2015-Jan-29 04:21 UTC.
Position N 49°08' W 127°06'.
Warning: this ship's position is 31 days out of date.

Length 186 m; draft 10.8 m.

Type: Cargo ship. MMSI: 441339000.

Date/timePositionNaut miles runAvg speedWind from/ knotsBaromVisibWave heightAir tempDewpointWater temp
2014-Dec-29 02:26N 49°08' W 127°06'8 9.3
2014-Dec-29 01:33N 49°05' W 126°55'10 9.9
2014-Dec-29 00:33N 49°00' W 126°41'1210.1
2014-Dec-28 23:23N 48°55' W 126°25'810.0
2014-Dec-28 22:33N 48°51' W 126°14'10 9.9
2014-Dec-28 21:33N 48°46' W 126°01'1010.5
2014-Dec-28 20:33N 48°42' W 125°46'1110.5
2014-Dec-28 19:33N 48°38' W 125°32'1110.5
2014-Dec-28 18:33N 48°34' W 125°17'1110.6
2014-Dec-28 17:33N 48°31' W 125°02'10 9.8
2014-Dec-28 16:33N 48°31' W 124°47'10 9.5
2014-Dec-28 15:33N 48°28' W 124°33'10 9.9
2014-Dec-28 14:33N 48°24' W 124°20'1010.4
2014-Dec-28 13:33N 48°20' W 124°05'1110.8
2014-Dec-28 12:33N 48°17' W 123°50'1211.9
2014-Dec-28 11:33N 48°16' W 123°32'1110.7
2014-Dec-28 10:33N 48°23' W 123°20'1010.5
2014-Dec-28 09:34N 48°33' W 123°13'1211.9
2014-Dec-28 08:33N 48°44' W 123°09'9 9.1
2014-Dec-28 07:34N 48°53' W 123°07'1313.2
2014-Dec-28 06:33N 49°03' W 123°21'1312.6
2014-Dec-28 05:33N 49°15' W 123°20'9 9.3
2014-Dec-28 04:33N 49°18' W 123°07'2 2.2
2014-Dec-28 03:31N 49°18' W 123°03'0 0.0
2014-Dec-28 02:31N 49°18' W 123°03'0 0.0
2014-Dec-28 01:31N 49°18' W 123°03'0 0.0
2014-Dec-28 00:31N 49°18' W 123°03'0 0.0
2014-Dec-27 23:31N 49°18' W 123°03'0 0.0
2014-Dec-27 22:31N 49°18' W 123°03'0 0.0
2014-Dec-27 21:31N 49°18' W 123°03'0 0.0
2014-Dec-27 20:31N 49°18' W 123°03'0 0.0
2014-Dec-27 19:31N 49°18' W 123°03'0 0.0
2014-Dec-27 18:31N 49°18' W 123°03'0 0.0
2014-Dec-27 17:31N 49°18' W 123°03'0 0.0
2014-Dec-27 16:31N 49°18' W 123°03'0 0.0
2014-Dec-27 15:31N 49°18' W 123°03'0 0.0
2014-Dec-27 14:31N 49°18' W 123°03'0 0.0
2014-Dec-27 13:31N 49°18' W 123°03'0 0.0
2014-Dec-27 12:31N 49°18' W 123°03'0 0.0
2014-Dec-27 11:31N 49°18' W 123°03'0 0.0
2014-Dec-27 10:31N 49°18' W 123°03'0 0.0
2014-Dec-27 09:31N 49°18' W 123°03'0 0.0
2014-Dec-27 08:31N 49°18' W 123°03'0 0.0
2014-Dec-27 07:31N 49°18' W 123°03'0 0.0
2014-Dec-27 06:31N 49°18' W 123°03'0 0.0
2014-Dec-27 05:31N 49°18' W 123°03'0 0.0
2014-Dec-27 04:31N 49°18' W 123°03'0 0.0
2014-Dec-27 03:31N 49°18' W 123°03'0 0.1
2014-Dec-27 02:34N 49°18' W 123°03'2 1.7
2014-Dec-27 01:33N 49°18' W 123°06'0 0.0
2014-Dec-27 00:33N 49°18' W 123°06'0 0.0
2014-Dec-26 23:33N 49°18' W 123°06'0 0.0
2014-Dec-26 22:33N 49°18' W 123°06'0 0.0
2014-Dec-26 21:33N 49°18' W 123°06'0 0.1
2014-Dec-26 20:30N 49°18' W 123°06'0 0.1
2014-Dec-26 19:33N 49°18' W 123°06'0 0.0
2014-Dec-26 18:33N 49°18' W 123°06'0 0.1
2014-Dec-26 17:33N 49°18' W 123°06'0 0.0
2014-Dec-26 16:32N 49°18' W 123°06'0 0.0
2014-Dec-26 15:32N 49°18' W 123°06'0 0.0
2014-Dec-26 14:32N 49°18' W 123°06'0 0.0
2014-Dec-26 13:32N 49°18' W 123°06'0 0.1
2014-Dec-26 12:32N 49°18' W 123°06'0 0.0
2014-Dec-26 11:32N 49°18' W 123°06'0 0.0
2014-Dec-26 10:32N 49°18' W 123°06'0 0.0
2014-Dec-26 09:32N 49°18' W 123°06'0 0.0
2014-Dec-26 08:32N 49°18' W 123°06'0 0.0
2014-Dec-26 07:32N 49°18' W 123°06'0 0.0
2014-Dec-26 06:32N 49°18' W 123°06'0 0.0
2014-Dec-26 05:32N 49°18' W 123°06'0 0.0
2014-Dec-26 04:32N 49°18' W 123°06'0 0.0
2014-Dec-26 03:32N 49°18' W 123°06'0 0.0
2014-Dec-26 02:32N 49°18' W 123°06'0 0.0
2014-Dec-26 01:32N 49°18' W 123°06'0 0.1
2014-Dec-26 00:32N 49°18' W 123°06'0 0.0
2014-Dec-25 23:32N 49°18' W 123°06'0 0.0
2014-Dec-25 22:32N 49°18' W 123°06'0 0.0
2014-Dec-25 21:32N 49°18' W 123°06'0 0.0
2014-Dec-25 20:32N 49°18' W 123°06'0 0.1
2014-Dec-25 19:32N 49°18' W 123°06'0 0.1
2014-Dec-25 18:32N 49°18' W 123°06'0 0.0
2014-Dec-25 17:32N 49°18' W 123°06'0 0.0
2014-Dec-25 16:33N 49°18' W 123°06'0 0.0
2014-Dec-25 15:32N 49°18' W 123°06'0 0.0
2014-Dec-25 14:32N 49°18' W 123°06'0 0.0
2014-Dec-25 13:32N 49°18' W 123°06'0 0.0
2014-Dec-25 12:32N 49°18' W 123°06'0 0.2
2014-Dec-25 11:32N 49°18' W 123°06'0 0.1
2014-Dec-25 10:32N 49°18' W 123°06'0 0.0
2014-Dec-25 09:32N 49°18' W 123°06'0 0.0
2014-Dec-25 08:32N 49°18' W 123°06'0 0.0
2014-Dec-25 07:33N 49°18' W 123°06'0 0.0
2014-Dec-25 06:33N 49°18' W 123°06'0 0.0
2014-Dec-25 05:34N 49°18' W 123°06'0 0.3
2014-Dec-25 04:33N 49°18' W 123°07'7 7.4
2014-Dec-25 03:33N 49°17' W 123°18'1211.7
2014-Dec-25 02:33N 49°05' W 123°20'1212.0
2014-Dec-25 01:33N 48°56' W 123°08'1111.1
2014-Dec-25 00:34N 48°46' W 123°03'1211.5
2014-Dec-24 23:33N 48°36' W 123°13'1312.7
2014-Dec-24 22:34N 48°24' W 123°13'1211.8
2014-Dec-24 21:33N 48°16' W 123°27'9 9.2
2014-Dec-24 20:33N 48°14' W 123°40'10 9.6
2014-Dec-24 19:33N 48°14' W 123°55'8 8.4
2014-Dec-24 18:33N 48°17' W 124°06'1110.6
2014-Dec-24 17:33N 48°21' W 124°21'1111.2
2014-Dec-24 16:33N 48°26' W 124°36'1212.4
2014-Dec-24 15:33N 48°28' W 124°54'1211.6
2014-Dec-24 14:33N 48°20' W 125°07'15813.1
2014-Dec-24 02:31N 45°46' W 125°56'5012.5
2014-Dec-23 22:33N 44°56' W 125°53'41611.2
2014-Dec-22 09:33N 38°14' W 123°32'1010.5
2014-Dec-22 08:33N 38°09' W 123°20'1110.5
2014-Dec-22 07:33N 38°01' W 123°12'1110.4
2014-Dec-22 06:32N 37°55' W 123°01'1110.9
2014-Dec-22 05:33N 37°50' W 122°48'8 7.9
2014-Dec-22 04:33N 37°45' W 122°41'9 9.1
2014-Dec-22 03:34N 37°49' W 122°30'7 6.5
2014-Dec-22 02:33N 37°54' W 122°27'1211.9
2014-Dec-22 01:33N 38°04' W 122°17'11 9.3
2014-Dec-22 00:21N 38°04' W 122°03'9 0.2
2014-Dec-20 11:19N 38°02' W 121°52'0 0.0
2014-Dec-19 06:10N 38°02' W 121°52'4 5.9
2014-Dec-19 05:32N 38°03' W 121°56'9 9.6
2014-Dec-19 04:33N 38°02' W 122°08'9 9.4
2014-Dec-19 03:33N 38°03' W 122°20'1010.4
2014-Dec-19 02:33N 37°54' W 122°26'  

Dump ship's entire track history